Location: Newark
(40.3820°N, 3.6624°W)
Time: 11:19:02
(UTC+00:00)

N. Korean satellite - Pass Details

Date: 17 November 2019
Orbit: 456 x 506 km, 97.2° (Epoch: 06 December)

Event Time Altitude Azimuth Distance (km) Brightness Sun altitude
Rises 17:34:00 0° 177° (S) 2,538 10.4 -7.5°
Reaches altitude 10° 17:36:04 10° 182° (S) 1,671 9.6 -7.9°
Maximum altitude 17:39:36 55° 260° (W) 603 7.5 -8.5°
Drops below altitude 10° 17:43:13 10° 339° (NNW) 1,711 9.4 -9.2°
Sets 17:45:22 0° 344° (NNW) 2,605 10.3 -9.6°
